Weather History for Park Rapids, MN

Change the Weather History Date:

Monday, August 1, 2011

  Actual Average Record
Temperature  
Mean Temperature 74 °F -  
Max Temperature 79 °F 81 °F 93 °F (1989)
Min Temperature 69 °F 54 °F 43 °F (1962)
Cooling Degree Days 8    
Growing Degree Days 24 (Base 50)    
Moisture  
Dew Point 67 °F    
Average Humidity 81    
Maximum Humidity 94    
Minimum Humidity 69    
Precipitation  
Precipitation 0.12 in - - ()
Sea Level Pressure  
Sea Level Pressure 29.87 in    
Wind  
Wind Speed 8 mph (SE)    
Max Wind Speed 21 mph    
Max Gust Speed 28 mph    
Visibility 9 miles    
Events Rain    
Averages and records for this station are not official NWS values.
T = Trace of Precipitation, MM = Missing Value Source: NWS Daily Summary

Daily Weather History Graph

Daily Weather History Graph

Search for Another Location

Airport:

Trip Planner

Search our weather history database for the weather conditions in past years. The results will help you decide how hot, cold, wet, or windy it might be!

Date:

Astronomy

Aug. 01, 2011 Rise Set
Actual Time 5:59 AM CDT 8:52 PM CDT
Civil Twilight 5:24 AM CDT 9:28 PM CDT
Nautical Twilight 4:38 AM CDT 10:13 PM CDT
Astronomical Twilight 3:44 AM CDT 11:06 PM CDT
Moon 8:29 AM CDT (8/1) 9:32 PM CDT (8/1)
Length of Visible Light 16h 03m
Length of Day
14h 53m
Waxing Crescent, 5% of the Moon is Illuminated
Aug 1
Waxing Crescent
Aug 6
First Quarter
Aug 13
Full
Aug 21
Last Quarter
Aug 28
New

Hourly Weather History & Observations

Time (CDT) Temp. Dew Point Humidity Pressure Visibility Wind Dir Wind Speed Gust Speed Precip Events Conditions
12:53 AM 70.0 °F 64.0 °F 81% 30.02 in 10.0 mi Calm Calm - N/A   Clear
1:53 AM 70.0 °F 64.9 °F 84% 29.99 in 10.0 mi ESE 8.1 mph - N/A   Clear
2:53 AM 72.0 °F 64.9 °F 78% 29.94 in 10.0 mi SE 9.2 mph - N/A   Clear
3:53 AM 71.6 °F 66.2 °F 83% 29.96 in 10.0 mi SE 5.8 mph - N/A   Clear
4:53 AM 72.0 °F 66.9 °F 84% 29.99 in 10.0 mi East 3.5 mph - N/A   Mostly Cloudy
5:53 AM 71.1 °F 68.0 °F 90% 29.97 in 10.0 mi SSW 3.5 mph - 0.00 in   Scattered Clouds
6:53 AM 69.8 °F 68.0 °F 94% 30.02 in 5.0 mi NNW 8.1 mph - N/A Rain Light Rain
7:53 AM 69.8 °F 68.0 °F 94% 29.98 in 8.0 mi SE 5.8 mph - N/A Rain Light Rain
8:53 AM 71.1 °F 69.1 °F 93% 29.96 in 8.0 mi South 9.2 mph - 0.01 in Rain Light Rain
9:53 AM 73.0 °F 66.9 °F 81% 29.95 in 9.0 mi South 11.5 mph - 0.02 in Rain Light Rain
10:53 AM 71.1 °F 64.9 °F 81% 29.90 in 10.0 mi SSE 17.3 mph 21.9 mph 0.04 in   Scattered Clouds
11:53 AM 73.9 °F 66.0 °F 76% 29.86 in 10.0 mi SSE 16.1 mph - N/A   Clear
12:53 PM 75.0 °F 66.9 °F 76% 29.85 in 10.0 mi SSE 11.5 mph - N/A   Clear
1:53 PM 75.0 °F 66.0 °F 73% 29.81 in 10.0 mi SSE 16.1 mph - N/A   Clear
2:53 PM 77.0 °F 66.9 °F 71% 29.82 in 10.0 mi SSE 9.2 mph - 0.00 in   Clear
3:53 PM 78.8 °F 68.0 °F 69% 29.83 in 10.0 mi SSE 6.9 mph - N/A   Clear
4:53 PM 77.0 °F 70.0 °F 79% 29.83 in 10.0 mi SE 6.9 mph - 0.01 in Rain Light Rain
5:53 PM 75.9 °F 70.0 °F 82% 29.81 in 10.0 mi SE 11.5 mph - 0.00 in   Clear
6:53 PM 77.0 °F 66.9 °F 71% 29.81 in 10.0 mi SE 11.5 mph - N/A   Overcast
7:06 PM 75.2 °F 69.8 °F 83% 29.81 in 10.0 mi SE 13.8 mph - 0.00 in Rain Light Rain
7:53 PM 75.9 °F 68.0 °F 76% 29.79 in 10.0 mi SE 9.2 mph - 0.00 in   Overcast
8:53 PM 75.0 °F 66.9 °F 76% 29.77 in 10.0 mi SE 10.4 mph - N/A   Overcast
9:53 PM 75.0 °F 66.9 °F 76% 29.70 in 10.0 mi SSE 18.4 mph 24.2 mph N/A   Overcast
10:53 PM 75.0 °F 66.9 °F 76% 29.65 in 10.0 mi SSE 16.1 mph 27.6 mph N/A   Overcast
11:53 PM 73.9 °F 69.1 °F 85% 29.78 in 8.0 mi NW 16.1 mph 27.6 mph 0.04 in Rain Light Rain
11:57 PM 71.6 °F 69.8 °F 94% 29.80 in 1.8 mi NNW 20.7 mph 26.5 mph 0.19 in Rain Heavy Rain